Location: ???????
(55.4362°N, 38.1183°E)
Time: 14:11:32
(UTC+00:00)

Cosmos 372 Rocket - Pass Details

Date: 21 October 2021
Orbit: 738 x 768 km, 74.1° (Epoch: 04 December)

Event Time Altitude Azimuth Distance (km) Brightness Sun altitude
Rises 14:50:22 0° 218° (SW) 3,172 8.0 -5.9°
Reaches altitude 10° 14:52:44 10° 222° (SW) 2,249 7.3 -6.3°
Maximum altitude 14:57:47 61° 303° (WNW) 841 4.5 -7.0°
Drops below altitude 10° 15:02:50 10° 24° (NNE) 2,259 6.1 -7.7°
Sets 15:05:14 0° 28° (NNE) 3,187 6.9 -8.0°
